sat.trackr.live / text

‹ back to catalog

STARLINK-35676

NORAD 67345 · 2026-003M

PAYLOAD ACTIVE UNKNOWN

§ Identity

Operator
Country
US
Launch date
2026-01-09
Launch site
AFETR
Launch vehicle
Mass (kg)
RCS (m²)

Purposes: comms

External: N2YO · Heavens-Above · Gunter

§ Orbital elements

Epoch: 2026-05-24T17:13:54.297120Z

Period
94.27 min
Inclination
43.0001°
Eccentricity
0.0001718
Mean motion
15.27575281 rev/d
Perigee alt
481.9 km
Apogee alt
484.2 km
Semi-major
6,861.2 km
B*
4.1636e-4
RAAN
157.5075°
Arg perigee
268.8888°
Mean anomaly
91.1767°
Rev number
2,045

§ Raw data

STARLINK-356761 67345U 26003M   26144.71798955  .00011211  00000+0  41636-3 0  99922 67345  43.0001 157.5075 0001718 268.8888  91.1767 15.27575281 20455

JSON: /api/v1/satellites/67345 · /tle

For live sub-satellite position, see the globe view (requires WebGL).

§ Visibility from observer

Set your observer location to see the next 7 days of passes ≥ 10°. The values pass through the URL so the page stays shareable.

No JS? Fill the form by hand. The geolocation button needs JavaScript.